• MPC Preparation (Info)

  • MPEC 2006-T70 : 2006 TU7

    The following Minor Planet Electronic Circular may be linked-to from your own Web pages, but must not otherwise be redistributed electronically.

    A form allowing access to any MPEC is at the bottom of this page.


    Read MPEC 2006-T69 Read MPEC 2006-T71


    M.P.E.C. 2006-T70                                Issued 2006 Oct. 13, 14:22 UT
    
         The Minor Planet Electronic Circulars contain information on unusual
             minor planets and routine data on comets.  They are published
       on behalf of Commission 20 of the International Astronomical Union by the
              Minor Planet Center, Smithsonian Astrophysical Observatory,
                              Cambridge, MA 02138, U.S.A.
    
                 Prepared using the Tamkin Foundation Computer Network
    
                                  MPC@CFA.HARVARD.EDU
              URL http://cfa-www.harvard.edu/iau/mpc.html  ISSN 1523-6714
    
                                       2006 TU7
    
    Observations:
         K06T07U* C2006 10 12.60057 01 18 11.41 -35 40 28.0          17.7 V ET070E12
         K06T07U  C2006 10 12.60986 01 18 03.88 -35 42 15.8          17.9 V ET070E12
         K06T07U  C2006 10 12.61896 01 17 56.58 -35 44 01.9          17.8 V ET070E12
         K06T07U  C2006 10 12.62791 01 17 49.34 -35 45 45.9          17.7 V ET070E12
         K06T07U IC2006 10 12.77429 01 15 51.86 -36 13 58.1          18.2 R ET070E12
         K06T07U  C2006 10 13.32694 01 08 27.58 -38 06 30.3          17.2 R ET070854
         K06T07U  C2006 10 13.32920 01 08 25.69 -38 06 56.4          17.9 R ET070854
         K06T07U  C2006 10 13.33146 01 08 23.50 -38 07 25.0          17.5 R ET070854
         K06T07U  C2006 10 13.37933 01 07 52.044-38 14 56.20         17.7 R ET070E12
         K06T07U  C2006 10 13.38137 01 07 50.236-38 15 21.89         17.7 R ET070E12
    
    Observer details:
    854 Sabino Canyon Observatory, Tucson.  Observer J. E. McGaha.  0.36-m f/10.0
        Schmidt-Cassegrain + CCD.
    E12 Siding Spring Survey.  Observer R. H. McNaught.  Measurers E. C. Beshore,
        E. J. Christensen, G. J. Garradd, A. R. Gibbs, A. D. Grauer, R. E. Hill,
        R. A. Kowalski, S. M. Larson, R. H. McNaught.  0.5-m Uppsala Schmidt + CCD.
    
    Orbital elements:
    2006 TU7                                            PHA, Earth MOID = 0.0213 AU
    Epoch 2006 Sept. 22.0 TT = JDT 2454000.5                MPC
    M 235.39795              (2000.0)            P               Q
    n   1.25835661     Peri.   66.87354     -0.94320350     -0.32838665
    a   0.8497025      Node    93.92536     +0.28337844     -0.87428700
    e   0.4685513      Incl.    2.88956     +0.17338920     -0.35746951
    P   0.78           H   21.7           G   0.15           U   9
    Residuals in seconds of arc
    061012 E12  0.6+  0.7-    061012 E12  0.4-  0.1+    061013 E12  0.1+  0.1-
    061012 E12  0.1-  0.0     061013 854  0.6-  0.2-    061013 E12  0.0   0.3-
    061012 E12  0.1+  0.1+    061013 854  1.2+  1.0+
    061012 E12  0.3-  0.5+    061013 854  0.6-  0.4-
    
    Ephemeris:
    2006 TU7                 a,e,i = 0.85, 0.47, 3                   q = 0.4516
    Date    TT    R. A. (2000) Decl.     Delta      r     Elong.  Phase     V
    2006 10 12    01 25.41   -33 44.7    0.0825   1.062   138.8    38.2    17.9
    2006 10 14    00 58.36   -40 22.2    0.0762   1.050   131.5    45.4    17.9
    2006 10 16    00 20.19   -47 17.4    0.0718   1.037   122.3    54.4    18.0
    2006 10 18    23 26.57   -53 35.6    0.0697   1.024   111.7    64.7    18.3
    2006 10 20    22 16.12   -57 57.7    0.0700   1.011   100.5    75.6    18.6
    2006 10 22    20 57.36   -59 22.5    0.0727   0.997    89.5    86.3    19.0
    2006 10 24    19 46.33   -58 01.4    0.0774   0.983    79.3    96.3    19.6
    2006 10 26    18 51.75   -55 02.5    0.0838   0.969    70.1   105.2    20.1
    2006 10 28    18 12.34   -51 29.5    0.0916   0.954    62.0   113.2    20.8
    2006 10 30    17 43.80   -47 57.5    0.100    0.939    54.8   120.2    21.4
    2006 11 01    17 22.52   -44 41.1    0.110    0.923    48.4   126.4    22.1
    
    Kyle E. Smalley              (C) Copyright 2006 MPC           M.P.E.C. 2006-T70
    

    Read MPEC 2006-T69 Read MPEC 2006-T71


    MPEC number:

    Enter an MPEC number in one of the following forms:

    • 1997-B01 (the full form)
    • J97B01 (the packed version of the full form)
    • B01 (the abbreviated form)